When you browse on this site, cookies collect data to enhance your experience and personalize the content and advertising you see.
Visit our Privacy Policy to learn more. By continuing to use the site, you agree to this use of cookies and data.
  • In Hungary
  • List of Countries
  • For 7 days
  • Water Temperature
  • Weather Map
  • News
  • Weather Widgets
  • user-avatar
    Login

    Hourly Weather Bugojno

    Today, 28 May, Thursday

    Time Temperature Precipitation Wind Pressure Humidity
    00:00 +9°C° 0 mm 1 mps 717 mmHg 97%
    01:00 +8°C° 0 mm 1 mps 717 mmHg 96%
    02:00 +8°C° 0 mm 1 mps 717 mmHg 96%
    03:00 +8°C° 0 mm 1 mps 716 mmHg 97%
    04:00 +8°C° 0 mm 1 mps 716 mmHg 97%
    05:00 +10°C° 0 mm 1 mps 716 mmHg 94%
    06:00 +10°C° 0 mm 2 mps 716 mmHg 91%
    07:00 +12°C° 0 mm 2 mps 716 mmHg 88%
    08:00 +14°C° 0.1 mm 2 mps 716 mmHg 78%
    09:00 +14°C° 0.1 mm 3 mps 716 mmHg 69%
    10:00 +17°C° 0.1 mm 3 mps 716 mmHg 59%
    11:00 +17°C° 0.1 mm 3 mps 716 mmHg 58%
    12:00 +17°C° 0.1 mm 3 mps 715 mmHg 57%
    13:00 +18°C° 0.1 mm 4 mps 715 mmHg 55%
    14:00 +18°C° 0.2 mm 3 mps 714 mmHg 58%
    15:00 +17°C° 0.2 mm 3 mps 714 mmHg 61%
    16:00 +17°C° 0.2 mm 3 mps 714 mmHg 64%
    17:00 +14°C° 0.1 mm 3 mps 713 mmHg 71%
    18:00 +14°C° 0.1 mm 2 mps 713 mmHg 78%
    19:00 +12°C° 0.1 mm 2 mps 713 mmHg 86%
    20:00 +11°C° 0 mm 1 mps 713 mmHg 88%
    21:00 +11°C° 0 mm 1 mps 713 mmHg 91%
    22:00 +10°C° 0 mm 1 mps 714 mmHg 94%
    23:00 +10°C° 0.1 mm 1 mps 714 mmHg 95%

    Tomorrow, 29 May, Friday

    Time Temperature Precipitation Wind Pressure Humidity
    00:00 +10°C° 0.1 mm 1 mps 713 mmHg 95%
    01:00 +10°C° 0.1 mm 1 mps 713 mmHg 96%
    02:00 +10°C° 0 mm 1 mps 713 mmHg 97%
    03:00 +10°C° 0 mm 1 mps 713 mmHg 97%
    04:00 +9°C° 0 mm 2 mps 713 mmHg 97%
    05:00 +9°C° 0 mm 2 mps 713 mmHg 96%
    06:00 +10°C° 0 mm 2 mps 713 mmHg 94%
    07:00 +10°C° 0 mm 2 mps 713 mmHg 93%
    08:00 +12°C° 0.1 mm 2 mps 713 mmHg 87%
    09:00 +13°C° 0.1 mm 2 mps 714 mmHg 81%
    10:00 +15°C° 0.1 mm 2 mps 714 mmHg 76%
    11:00 +15°C° 0.1 mm 2 mps 713 mmHg 72%
    12:00 +16°C° 0.1 mm 2 mps 713 mmHg 68%
    13:00 +17°C° 0.1 mm 2 mps 713 mmHg 64%
    14:00 +17°C° 0.2 mm 2 mps 713 mmHg 66%
    15:00 +17°C° 0.2 mm 2 mps 712 mmHg 68%
    16:00 +17°C° 0.2 mm 2 mps 712 mmHg 70%
    17:00 +15°C° 0.3 mm 2 mps 712 mmHg 78%
    18:00 +14°C° 0.3 mm 1 mps 712 mmHg 86%
    19:00 +12°C° 0.3 mm 1 mps 711 mmHg 94%
    20:00 +11°C° 0 mm 1 mps 711 mmHg 95%
    21:00 +11°C° 0 mm 1 mps 712 mmHg 95%
    22:00 +10°C° 0 mm 1 mps 712 mmHg 96%
    23:00 +10°C° 0 mm 1 mps 712 mmHg 96%

    Day after tomorrow, 30 May, Saturday

    Time Temperature Precipitation Wind Pressure Humidity
    00:00 +8°C° 0 mm 0 mps 711 mmHg 96%
    01:00 +8°C° 0 mm 0 mps 711 mmHg 96%
    02:00 +8°C° 0.1 mm 0 mps 711 mmHg 96%
    03:00 +9°C° 0.1 mm 0 mps 711 mmHg 97%
    04:00 +10°C° 0.1 mm 1 mps 711 mmHg 97%
    05:00 +10°C° 0.1 mm 1 mps 711 mmHg 96%
    06:00 +11°C° 0.1 mm 1 mps 711 mmHg 95%
    07:00 +12°C° 0.1 mm 1 mps 711 mmHg 94%
    08:00 +12°C° 0.4 mm 1 mps 711 mmHg 92%
    09:00 +13°C° 0.4 mm 1 mps 711 mmHg 91%
    10:00 +14°C° 0.4 mm 1 mps 711 mmHg 89%
    11:00 +13°C° 0.4 mm 1 mps 711 mmHg 89%
    12:00 +13°C° 0.4 mm 1 mps 711 mmHg 90%
    13:00 +13°C° 0.4 mm 1 mps 711 mmHg 90%
    14:00 +13°C° 0.4 mm 1 mps 711 mmHg 91%
    15:00 +13°C° 0.4 mm 1 mps 711 mmHg 91%
    16:00 +13°C° 0.4 mm 1 mps 710 mmHg 92%
    17:00 +12°C° 0.1 mm 1 mps 710 mmHg 93%
    18:00 +12°C° 0.1 mm 1 mps 710 mmHg 94%
    19:00 +11°C° 0.1 mm 0 mps 710 mmHg 95%
    20:00 +10°C° 0.1 mm 0 mps 710 mmHg 96%
    21:00 +11°C° 0.1 mm 1 mps 711 mmHg 96%
    22:00 +11°C° 0.1 mm 1 mps 711 mmHg 96%
    23:00 +11°C° 0.2 mm 1 mps 711 mmHg 97%

    31 May, Sunday

    Time Temperature Precipitation Wind Pressure Humidity
    00:00 +10°C° 0.2 mm 1 mps 711 mmHg 97%
    01:00 +10°C° 0.2 mm 1 mps 711 mmHg 98%
    02:00 +10°C° 0.1 mm 1 mps 710 mmHg 98%
    03:00 +10°C° 0.1 mm 1 mps 710 mmHg 98%
    04:00 +10°C° 0.1 mm 1 mps 710 mmHg 98%
    05:00 +10°C° 0 mm 1 mps 710 mmHg 96%
    06:00 +11°C° 0 mm 1 mps 711 mmHg 94%
    07:00 +11°C° 0 mm 1 mps 711 mmHg 93%
    08:00 +13°C° 0 mm 1 mps 711 mmHg 83%
    09:00 +15°C° 0 mm 1 mps 711 mmHg 73%
    10:00 +18°C° 0 mm 1 mps 711 mmHg 63%
    11:00 +19°C° 0 mm 1 mps 711 mmHg 58%
    12:00 +19°C° 0 mm 2 mps 711 mmHg 53%
    13:00 +20°C° 0 mm 2 mps 711 mmHg 47%
    14:00 +19°C° 0.1 mm 2 mps 710 mmHg 50%
    15:00 +19°C° 0.1 mm 3 mps 710 mmHg 52%
    16:00 +19°C° 0.1 mm 3 mps 710 mmHg 54%
    17:00 +17°C° 0 mm 2 mps 710 mmHg 63%
    18:00 +15°C° 0 mm 2 mps 709 mmHg 72%
    19:00 +13°C° 0 mm 1 mps 709 mmHg 81%
    20:00 +12°C° 0 mm 1 mps 709 mmHg 83%
    21:00 +11°C° 0 mm 1 mps 709 mmHg 86%
    22:00 +10°C° 0 mm 1 mps 710 mmHg 88%
    23:00 +10°C° 0 mm 1 mps 709 mmHg 88%

    1 June, Monday

    Time Temperature Precipitation Wind Pressure Humidity
    00:00 +9°C° 0 mm 1 mps 709 mmHg 88%
    01:00 +9°C° 0 mm 1 mps 709 mmHg 88%
    02:00 +9°C° 0 mm 1 mps 709 mmHg 87%
    03:00 +9°C° 0 mm 1 mps 709 mmHg 87%
    04:00 +9°C° 0 mm 1 mps 708 mmHg 87%
    05:00 +10°C° 0.3 mm 1 mps 708 mmHg 88%
    06:00 +10°C° 0.3 mm 1 mps 709 mmHg 90%
    07:00 +11°C° 0.3 mm 1 mps 709 mmHg 92%
    08:00 +12°C° 0.1 mm 1 mps 709 mmHg 90%
    09:00 +13°C° 0.1 mm 1 mps 709 mmHg 89%
    10:00 +14°C° 0.1 mm 1 mps 709 mmHg 87%
    11:00 +15°C° 0.1 mm 2 mps 709 mmHg 83%
    12:00 +16°C° 0.1 mm 2 mps 709 mmHg 79%
    13:00 +17°C° 0.1 mm 2 mps 709 mmHg 75%
    14:00 +16°C° 0.2 mm 2 mps 709 mmHg 76%
    15:00 +16°C° 0.2 mm 3 mps 709 mmHg 77%
    16:00 +16°C° 0.2 mm 3 mps 708 mmHg 78%
    17:00 +15°C° 0.1 mm 2 mps 708 mmHg 83%
    18:00 +14°C° 0.1 mm 2 mps 708 mmHg 88%
    19:00 +13°C° 0.1 mm 1 mps 708 mmHg 93%
    20:00 +13°C° 0 mm 1 mps 708 mmHg 94%
    21:00 +12°C° 0 mm 1 mps 708 mmHg 95%
    22:00 +12°C° 0 mm 1 mps 708 mmHg 97%
    23:00 +11°C° 0 mm 1 mps 708 mmHg 97%

    2 June, Tuesday

    Time Temperature Precipitation Wind Pressure Humidity
    00:00 +11°C° 0 mm 1 mps 708 mmHg 97%
    01:00 +11°C° 0 mm 1 mps 708 mmHg 97%
    02:00 +11°C° 0.1 mm 1 mps 707 mmHg 97%
    03:00 +12°C° 0.1 mm 1 mps 707 mmHg 97%
    04:00 +12°C° 0.1 mm 1 mps 707 mmHg 98%
    05:00 +12°C° 0.2 mm 1 mps 707 mmHg 97%
    06:00 +13°C° 0.2 mm 1 mps 708 mmHg 96%
    07:00 +13°C° 0.2 mm 2 mps 708 mmHg 95%
    08:00 +14°C° 0.4 mm 2 mps 708 mmHg 90%
    09:00 +15°C° 0.4 mm 2 mps 708 mmHg 86%
    10:00 +16°C° 0.4 mm 2 mps 709 mmHg 82%
    11:00 +16°C° 0.8 mm 2 mps 708 mmHg 82%
    12:00 +17°C° 0.8 mm 2 mps 708 mmHg 82%
    13:00 +17°C° 0.8 mm 2 mps 708 mmHg 82%
    14:00 +17°C° 0.7 mm 2 mps 708 mmHg 81%
    15:00 +17°C° 0.7 mm 2 mps 707 mmHg 81%
    16:00 +17°C° 0.7 mm 2 mps 707 mmHg 80%
    17:00 +16°C° 0.6 mm 1 mps 707 mmHg 85%
    18:00 +15°C° 0.6 mm 1 mps 707 mmHg 90%
    19:00 +13°C° 0.6 mm 1 mps 707 mmHg 95%
    20:00 +12°C° 0 mm 1 mps 707 mmHg 95%
    21:00 +11°C° 0 mm 1 mps 707 mmHg 95%
    22:00 +10°C° 0 mm 1 mps 707 mmHg 95%
    23:00 +10°C° 0 mm 1 mps 707 mmHg 95%
    Show more